Tracking 28091 objects as of 29-Sep-2023
HD Live streaming from Space Station
objects crossing your sky now

COSMOS 886 DEB

Track COSMOS 886 DEB now!
10-day predictions


NORAD ID: 9653
Int'l Code: 1976-126K
Perigee: 557.4 km
Apogee: 1,810.4 km
Inclination: 65.8 °
Period: 108.9 minutes
Semi major axis: 7554 km
RCS: 0.0715 m2 (small)
Launch date: December 27, 1976
Source: Commonwealth of Independent States (former USSR) (CIS)
Launch site: TYURATAM MISSILE AND SPACE COMPLEX (TTMTR)

Note: This is SATELLITE DEBRIS
Your satellite tracking list
Your tracking list is empty




NASA's NSSDC Master Catalog

Two Line Element Set (TLE):
1 09653U 76126K   23271.41228098  .00004916  00000-0  18025-2 0  9992
2 09653  65.7714 314.6327 0829270 258.1310  92.5663 13.22095991212343
Source of the keplerian elements: AFSPC